Location: ????????
(56.1167°N, 38.6333°E)
Time: 21:02:30
(UTC+00:00)

Cosmos 2263 Rocket - Pass Details

Date: 18 November 2025
Orbit: 822 x 847 km, 71.0° (Epoch: 06 December)

Event Time Altitude Azimuth Distance (km) Brightness Sun altitude
Rises 16:14:56 0° 305° (NW) 3,379 6.2 -24.9°
Reaches altitude 10° 16:18:11 10° 324° (NW) 2,449 5.1 -25.4°
Maximum altitude 16:22:00 18° 7° (N) 1,937 4.0 -25.9°
Enters shadow 16:22:30 18° 14° (NNE) 1,948 4.0 -26.0°
